This is the latest recevied weather packets stored in our database for station/object EA1L-13. If no packets are shown the sender has not sent any weather packets the latest 10 day(s).
| Time | Temp. | Humidity | Pressure | Rain* | Wind** | Luminosity | Snow |
|---|---|---|---|---|---|---|---|
| 1778253304 | 14.44° C | 100% | 1006.4 hPa | 0.25 mm | - | - | - |
| 1778252404 | 14.44° C | 100% | 1006.5 hPa | 0 mm | - | - | - |
| 1778251504 | 14.44° C | 100% | 1006.2 hPa | 0 mm | - | - | - |
| 1778250604 | 15° C | 100% | 1006.3 hPa | 0 mm | - | - | - |
| 1778249704 | 14.44° C | 100% | 1006.5 hPa | 0 mm | - | - | - |
| 1778248804 | 14.44° C | 100% | 1006.6 hPa | 0 mm | - | - | - |
| 1778247904 | 14.44° C | 100% | 1006.8 hPa | 0 mm | - | - | - |
| 1778247004 | 13.89° C | 100% | 1007 hPa | 0 mm | - | - | - |
| 1778246105 | 13.89° C | 100% | 1007.2 hPa | 0 mm | - | - | - |
| 1778245204 | 13.89° C | 100% | 1007.3 hPa | 0 mm | - | - | - |
| 1778244305 | 13.89° C | 100% | 1007.3 hPa | 0 mm | - | - | - |
| 1778243405 | 13.89° C | 100% | 1007.7 hPa | 0 mm | - | - | - |
| 1778242504 | 13.89° C | 100% | 1007.7 hPa | 0 mm | - | - | - |
| 1778241604 | 13.89° C | 100% | 1007.5 hPa | 0 mm | - | - | - |
| 1778240704 | 13.33° C | 100% | 1007.3 hPa | 0 mm | - | - | - |
| 1778239804 | 13.33° C | 100% | 1007.1 hPa | 0.25 mm | - | - | - |
| 1778238904 | 13.33° C | 100% | 1007.3 hPa | 1.27 mm | - | - | - |
| 1778238004 | 13.33° C | 100% | 1007.5 hPa | 1.78 mm | - | - | - |
| 1778237105 | 13.33° C | 100% | 1007.7 hPa | 1.78 mm | - | - | - |
| 1778236205 | 12.78° C | 100% | 1007.7 hPa | 1.52 mm | - | - | - |
| 1778235304 | 13.33° C | 100% | 1007.8 hPa | 0.51 mm | - | - | - |
| 1778234404 | 13.33° C | 100% | 1007.5 hPa | 0 mm | - | - | - |
| 1778233505 | 13.33° C | 100% | 1007.4 hPa | 0 mm | - | - | - |
| 1778232605 | 12.78° C | 100% | 1007.2 hPa | 0 mm | - | - | - |
| 1778231704 | 12.78° C | 100% | 1007 hPa | 0 mm | - | - | - |
* Rain latest hour (hover to see other rain measurements)
** Current wind speed in m/s (hover to see current wind gust speed)